Mecheria, Algeria

5:09 PM CET on December 11, 2019 (GMT +0100)
Mecheria

Weather History for DAAY - June, 2019

Change the Weather History Date:

Monday, June 10, 2019

  Actual Average (WUND) Record (WUND)
Temperature  
Mean Temperature 70 °F -  
Max Temperature 82 °F - - (-1)
Min Temperature 57 °F - - (-1)
Cooling Degree Days 4    
Growing Degree Days 20 (Base 50)    
Moisture  
Dew Point 49 °F    
Average Humidity 48    
Maximum Humidity 77    
Minimum Humidity 18    
Precipitation  
Precipitation 0.00 in - - ()
Sea Level Pressure  
Sea Level Pressure 30.11 in    
Wind  
Wind Speed 13 mph ()    
Max Wind Speed 23 mph    
Max Gust Speed -    
Visibility 5.8 miles    
Events      
Averages and records for this station are not official NWS values.
T = Trace of Precipitation, MM = Missing Value Source: Averaged Metar Reports

Daily Weather History Graph

Daily Weather History Graph

Search for Another Location

Airport or City:

Astronomy

Jun. 10, 2019 Rise Set
Actual Time 5:50 AM CET 8:10 PM CET
Civil Twilight 5:21 AM CET 8:39 PM CET
Nautical Twilight 4:46 AM CET 9:14 PM CET
Astronomical Twilight 4:07 AM CET 9:53 PM CET
Moon 1:08 PM CET (6/10) 1:28 AM CET (6/10)
Length of Visible Light 15h 17m
Length of Day
14h 20m
First Quarter, 53% of the Moon is Illuminated
Jun 10
First Quarter
Jun 17
Full
Jun 25
Last Quarter
Jul 2
New
Jul 9
First Quarter

Hourly Weather History & Observations

Time (CET) Temp. Dew Point Humidity Pressure Visibility Wind Dir Wind Speed Gust Speed Precip Events Conditions
12:00 AM 68.0 °F 50.0 °F 52% 30.15 in 5.0 mi North 23.0 mph - N/A   Unknown
2:00 AM 64.4 °F 51.8 °F 64% 30.18 in 5.0 mi North 16.1 mph - N/A   Unknown
4:00 AM 60.8 °F 51.8 °F 72% 30.15 in 5.0 mi North 9.2 mph - N/A   Unknown
5:00 AM 59.0 °F 46.4 °F 63% 30.12 in 5.0 mi North 9.2 mph - N/A   Unknown
6:00 AM 59.0 °F 51.8 °F 77% 30.15 in - NNE 9.2 mph - N/A   Clear
7:00 AM 60 °F 53 °F 69%  in 6 mi NNE 9.2 mph - -  
7:00 AM 60.8 °F 51.8 °F 72% 30.15 in - NNE 9.2 mph - N/A   Clear
8:00 AM 62.6 °F 51.8 °F 68% 30.15 in - NNE 11.5 mph - N/A   Clear
9:00 AM 66.2 °F 53.6 °F 64% 30.15 in - NNE 13.8 mph - N/A   Clear
10:00 AM 69 °F 56 °F 55%  in 6 mi NNE 20.7 mph - -  
10:00 AM 68.0 °F 57.2 °F 68% 30.15 in - NNE 20.7 mph - N/A   Clear
11:00 AM 71.6 °F 55.4 °F 57% 30.12 in - North 13.8 mph - N/A   Clear
12:00 PM 75.2 °F 51.8 °F 44% 30.12 in - North 16.1 mph - N/A   Clear
1:00 PM 76 °F 49 °F 27%  in 6 mi North 11.5 mph - -  
1:00 PM 77.0 °F 48.2 °F 36% 30.12 in - North 11.5 mph - N/A   Clear
2:00 PM 78.8 °F 48.2 °F 34% 30.09 in - North 16.1 mph - N/A   Clear
3:00 PM 80.6 °F 46.4 °F 30% 30.06 in - North 16.1 mph - N/A   Clear
4:00 PM 82 °F 46 °F 18%  in 6 mi North 16.1 mph - -  
4:00 PM 82.4 °F 46.4 °F 28% 30.06 in - North 16.1 mph - N/A   Clear
5:00 PM 80.6 °F 44.6 °F 28% 30.06 in - North 13.8 mph - N/A   Clear
6:00 PM 77.0 °F 44.6 °F 32% 30.06 in 6.2 mi North 23.0 mph - N/A   Scattered Clouds
7:00 PM 75 °F 45 °F 24%  in 6 mi North 20.7 mph - -   Scattered Clouds
7:00 PM 75.2 °F 44.6 °F 34% 30.06 in 6.2 mi North 20.7 mph - N/A   Scattered Clouds
8:00 PM 71.6 °F 46.4 °F 41% 30.06 in 6.2 mi NNE 18.4 mph - N/A   Scattered Clouds
9:00 PM 69.8 °F 44.6 °F 40% 30.06 in 6.2 mi NNE 16.1 mph - N/A   Scattered Clouds
10:00 PM 66.2 °F 46.4 °F 49% 30.09 in - NNE 9.2 mph - N/A   Clear
11:00 PM 66.2 °F 46.4 °F 49% 30.09 in - North 13.8 mph - N/A   Clear